Location: Newark
(45.9456°N, 15.4064°E)
Time: 11:25:22
(UTC+00:00)

Vanguard 3 - Pass Details

Date: 25 January 2020
Orbit: 508 x 3263 km, 33.3° (Epoch: 22 February)

Event Time Altitude Azimuth Distance (km) Brightness Sun altitude
Rises 20:21:53 0° 269° (W) 7,158 12.6 -46.1°
Reaches altitude 10° 20:27:20 10° 264° (W) 5,958 12.0 -47.0°
Enters shadow 20:41:01 40° 219° (SW) 3,246 10.0 -49.1°
Maximum altitude 20:43:00 42° 203° (SSW) 3,044 - -49.4°
Drops below altitude 10° 20:53:04 10° 137° (SE) 3,884 - -50.9°
Sets 20:55:50 0° 130° (SE) 4,544 - -51.3°
